Location: ?
(35.3436°N, 139.3168°E)
Time: 21:14:13
(UTC+00:00)

Cosmos 2082 Rocket - Pass Details

Date: 29 October 2020
Orbit: 833 x 854 km, 71.0° (Epoch: 24 November)

Event Time Altitude Azimuth Distance (km) Brightness Sun altitude
Exits shadow 18:57:38 74° 259° (WSW) 866 2.0 -25.9°
Maximum altitude 18:57:55 77° 291° (WNW) 858 2.0 -25.9°
Drops below altitude 10° 19:03:32 10° 18° (NNE) 2,449 4.8 -24.7°
Sets 19:06:00 0° 20° (NNE) 3,388 5.6 -24.2°
